User: anonymous   Login
Location: Unspecified
(0.0000°N, 0.0000°E)
Time: 01:02:06
(UTC+00:00)
Language:

STARLINK-37128 - Orbit

View from above orbital plane
View from above orbital plane
View from above satellite
View from above satellite

Ground track
Ground track

The orbit is defined by the following mean orbital elements,

1 68385U          26145.35749740 +.00000000 +00000-0 +70390-3 0 00002
2 68385  97.2851 287.9002 0001312  67.8328 292.3054 15.33452601    08
Epoch (UTC): 25 May 2026 08:34:47
Eccentricity: 0.0001312
inclination: 97.2851°
perigee height: 465 km
apogee height: 466 km
right ascension of ascending node: 287.9002°
argument of perigee: 67.8328°
revolutions per day: 15.33452601
mean anomaly at epoch: 292.3054°

The dashed part of the orbit path shows where the satellite is in the earth's shadow,  

DLR